User: anonymous   Login
Location: Unspecified
(0.0000°N, 0.0000°E)
Time: 15:41:59
(UTC+00:00)
Language:

CUTE 1.7 + AOD 2 - Orbit

View from above orbital plane
View from above orbital plane
View from above satellite
View from above satellite

Ground track
Ground track

The orbit data is extracted from the following two-line orbital elements,

1 32785U 08021C   16145.15512468  .00000497  00000-0  60411-4 0  9991
2 32785  97.6046 180.3685 0013756  23.2847 336.8990 14.87551164437057
Epoch (UTC): 24 May 2016 03:43:22
Eccentricity: 0.0013756
inclination: 97.6046°
perigee height: 596 km
apogee height: 615 km
right ascension of ascending node: 180.3685°
argument of perigee: 23.2847°
revolutions per day: 14.87551164
mean anomaly at epoch: 336.8990°
orbit number at epoch: 43705

The dashed part of the orbit path shows where the satellite is in the earth's shadow,  

DLR